| time (UTC) | temp F | wind direction | speed MPH | gust MPH | rain 1hr in | rain 24hr in | rain mn in | humidity % | barometer mb |
| 20260509091639 | 45 | 100 | 8.0 | 0.0 | 0.00 | 0.00 | 0.00 | 87 | |
| 20260509081639 | 43 | 110 | 8.0 | 0.0 | 0.00 | 0.00 | 0.00 | 93 | |
| 20260509071738 | 41 | 110 | 7.0 | 0.0 | 0.00 | 0.00 | 0.00 | 93 | |
| 20260509061639 | 39 | 130 | 6.0 | 0.0 | 0.00 | 0.00 | 0.00 | 93 | |
| 20260509051638 | 37 | 120 | 7.0 | 0.0 | 0.00 | 0.00 | 0.00 | 99 | |
| 20260509041839 | 37 | 130 | 8.0 | 0.0 | 0.00 | 0.00 | 0.00 | 93 | |
| 20260509031639 | 37 | 140 | 9.0 | 0.0 | 0.00 | 0.00 | 0.00 | 93 | |
| 20260509021639 | 37 | 150 | 8.0 | 0.0 | 0.00 | 0.00 | 0.00 | 93 | |
| 20260509011739 | 37 | 130 | 8.0 | 0.0 | 0.00 | 0.00 | 0.00 | 93 | |
| 20260509001639 | 37 | 130 | 8.0 | 0.0 | 0.00 | 0.00 | 0.00 | 99 | |
| 20260508231638 | 39 | 120 | 8.0 | 0.0 | 0.00 | 0.00 | 0.00 | 93 | |
| 20260508221839 | 39 | 110 | 8.0 | 0.0 | 0.00 | 0.00 | 0.00 | 99 | |
| 20260508211638 | 39 | 90 | 7.0 | 0.0 | 0.00 | 0.00 | 0.00 | 99 | |
| 20260508201640 | 39 | 40 | 6.0 | 0.0 | 0.00 | 0.00 | 0.00 | 99 | |
| 20260508191739 | 39 | 10 | 6.0 | 0.0 | 0.00 | 0.00 | 0.00 | 99 | |
| 20260508181639 | 41 | 360 | 7.0 | 0.0 | 0.00 | 0.00 | 0.00 | 93 | |
| 20260508171638 | 41 | 10 | 5.0 | 0.0 | 0.00 | 0.00 | 0.00 | 93 | |
| 20260508161839 | 41 | 10 | 6.0 | 0.0 | 0.00 | 0.00 | 0.00 | 99 | |
| 20260508151640 | 43 | 10 | 2.0 | 0.0 | 0.00 | 0.00 | 0.00 | 93 | |
| 20260508141639 | 41 | 340 | 5.0 | 0.0 | 0.00 | 0.00 | 0.00 | 99 | |
| 20260508131739 | 41 | 30 | 5.0 | 0.0 | 0.00 | 0.00 | 0.00 | 93 | |
| 20260508121638 | 43 | 310 | 3.0 | 0.0 | 0.00 | 0.00 | 0.00 | 93 | |
| 20260508111639 | 41 | 10 | 2.0 | 0.0 | 0.00 | 0.00 | 0.00 | 93 | |
| 20260508101839 | 39 | 280 | 3.0 | 0.0 | 0.00 | 0.00 | 0.00 | 99 |